SBI8727 UNNT-UNKL

Flight info

Callsign SBI8727
Flight time 1h 0m
Altitude 35000
Route OGATI A308 RISPA A366 KESED A309 ROTLI A300 RANET
Aircraft A20N/M-SDE2E3FGHIRWXY/LB1

Departure

Time 2026-05-01 14:32
Airport Novosibirsk Tolmachevo Airport (UNNT)

Arrival

Time 2026-05-01 15:33
Airport Krasnoyarsk International Airport (UNKL)
Time Latitude Longitude Altitude Speed Heading
2026-05-01 13:57 55.01120 82.66930 371 ft 0 kts 172°
2026-05-01 14:22 55.01113 82.66932 371 ft 1 kts 172°
2026-05-01 14:22 55.01095 82.66936 371 ft 3 kts 173°
2026-05-01 14:22 55.01080 82.66924 371 ft 2 kts 252°
2026-05-01 14:22 55.01087 82.66884 371 ft 4 kts 300°
2026-05-01 14:23 55.01098 82.66821 371 ft 6 kts 270°
2026-05-01 14:23 55.01095 82.66735 371 ft 7 kts 262°
2026-05-01 14:23 55.01080 82.66633 371 ft 9 kts 250°
2026-05-01 14:23 55.01057 82.66534 371 ft 8 kts 248°
2026-05-01 14:24 55.01037 82.66446 371 ft 7 kts 251°
2026-05-01 14:24 55.01018 82.66347 371 ft 9 kts 240°
2026-05-01 14:24 55.00974 82.66248 371 ft 10 kts 243°
2026-05-01 14:24 55.00960 82.66125 371 ft 7 kts 261°
2026-05-01 14:25 55.00950 82.66021 371 ft 9 kts 261°
2026-05-01 14:25 55.00939 82.65898 371 ft 10 kts 261°
2026-05-01 14:25 55.00930 82.65801 371 ft 8 kts 262°
2026-05-01 14:25 55.00921 82.65688 371 ft 9 kts 261°
2026-05-01 14:26 55.00909 82.65557 371 ft 8 kts 261°
2026-05-01 14:26 55.00886 82.65325 371 ft 7 kts 262°
2026-05-01 14:26 55.00883 82.65221 371 ft 9 kts 269°
2026-05-01 14:27 55.00875 82.65099 371 ft 10 kts 261°
2026-05-01 14:27 55.00876 82.64960 371 ft 12 kts 283°
2026-05-01 14:27 55.00896 82.64807 371 ft 13 kts 283°
2026-05-01 14:28 55.00934 82.64521 371 ft 10 kts 283°
2026-05-01 14:28 55.00949 82.64397 371 ft 9 kts 283°
2026-05-01 14:28 55.00965 82.64278 371 ft 10 kts 283°
2026-05-01 14:28 55.00983 82.64140 371 ft 12 kts 283°
2026-05-01 14:29 55.00995 82.64054 371 ft 7 kts 287°
2026-05-01 14:29 55.01020 82.64011 371 ft 0 kts 344°
2026-05-01 14:30 55.01026 82.64007 372 ft 2 kts 344°
2026-05-01 14:31 55.01099 82.63986 372 ft 9 kts 353°
2026-05-01 14:31 55.01153 82.64043 372 ft 6 kts 75°
2026-05-01 14:31 55.01154 82.64056 371 ft 1 kts 81°
2026-05-01 14:31 55.01155 82.64066 372 ft 0 kts 82°
2026-05-01 14:32 55.01157 82.64092 371 ft 7 kts 82°
2026-05-01 14:32 55.01215 82.64748 372 ft 101 kts 81°
2026-05-01 14:32 55.01364 82.66391 585 ft 153 kts 83°
2026-05-01 14:32 55.01556 82.68093 1515 ft 146 kts 85°
2026-05-01 14:33 55.01738 82.69790 2380 ft 146 kts 89°
2026-05-01 14:33 55.01886 82.71621 2969 ft 160 kts 88°
2026-05-01 14:33 55.01996 82.73615 3518 ft 173 kts 97°
2026-05-01 14:33 55.01829 82.75761 4086 ft 188 kts 104°
2026-05-01 14:34 55.01568 82.78079 4668 ft 204 kts 105°
2026-05-01 14:34 55.01278 82.80669 5162 ft 231 kts 104°
2026-05-01 14:34 55.00974 82.83575 5852 ft 250 kts 103°
2026-05-01 14:34 55.00669 82.86620 6560 ft 267 kts 102°
2026-05-01 14:35 55.00357 82.89823 7536 ft 274 kts 102°
2026-05-01 14:35 55.00041 82.93097 8480 ft 281 kts 102°
2026-05-01 14:35 54.99712 82.96522 9370 ft 288 kts 102°
2026-05-01 14:35 54.99377 82.99975 10300 ft 295 kts 102°
2026-05-01 14:36 54.99027 83.03569 10970 ft 310 kts 102°
2026-05-01 14:36 54.98653 83.07384 11506 ft 329 kts 101°
2026-05-01 14:36 54.98259 83.11403 12015 ft 348 kts 101°
2026-05-01 14:36 54.97842 83.15642 12576 ft 363 kts 101°
2026-05-01 14:37 54.97416 83.19996 13389 ft 370 kts 101°
2026-05-01 14:37 54.97015 83.24445 14232 ft 375 kts 99°
2026-05-01 14:37 54.96679 83.28999 15042 ft 380 kts 98°
2026-05-01 14:37 54.96347 83.33569 15840 ft 385 kts 98°
2026-05-01 14:38 54.96009 83.38202 16604 ft 390 kts 98°
2026-05-01 14:38 54.95665 83.42870 17436 ft 393 kts 98°
2026-05-01 14:38 54.95313 83.47604 18293 ft 394 kts 98°
2026-05-01 14:38 54.94958 83.52329 19036 ft 398 kts 98°
2026-05-01 14:39 54.94598 83.57110 19756 ft 402 kts 98°
2026-05-01 14:39 54.94231 83.61937 20463 ft 406 kts 98°
2026-05-01 14:39 54.93858 83.66816 21171 ft 409 kts 99°
2026-05-01 14:39 54.93483 83.71714 21848 ft 413 kts 99°
2026-05-01 14:40 54.93101 83.76678 22503 ft 416 kts 99°
2026-05-01 14:40 54.92710 83.81703 23139 ft 420 kts 99°
2026-05-01 14:40 54.92317 83.86740 23761 ft 424 kts 99°
2026-05-01 14:40 54.91914 83.91876 24358 ft 428 kts 99°
2026-05-01 14:41 54.91507 83.97029 24944 ft 432 kts 99°
2026-05-01 14:41 54.91098 84.02183 25484 ft 436 kts 99°
2026-05-01 14:41 54.90679 84.07426 26015 ft 440 kts 99°
2026-05-01 14:41 54.90260 84.12640 26521 ft 444 kts 99°
2026-05-01 14:42 54.89824 84.18022 27027 ft 447 kts 99°
2026-05-01 14:42 54.89380 84.23329 27493 ft 451 kts 99°
2026-05-01 14:42 54.88920 84.28780 27972 ft 454 kts 99°
2026-05-01 14:42 54.88466 84.34202 28453 ft 457 kts 99°
2026-05-01 14:43 54.88010 84.39680 29091 ft 456 kts 99°
2026-05-01 14:43 54.87553 84.45163 29766 ft 454 kts 98°
2026-05-01 14:43 54.87104 84.50531 30384 ft 453 kts 98°
2026-05-01 14:43 54.86650 84.55943 30965 ft 452 kts 98°
2026-05-01 14:44 54.86197 84.61300 31524 ft 451 kts 98°
2026-05-01 14:44 54.85442 84.72149 32564 ft 450 kts 95°
2026-05-01 14:44 54.85164 84.77529 33048 ft 450 kts 95°
2026-05-01 14:45 54.84893 84.82878 33521 ft 449 kts 95°
2026-05-01 14:45 54.84330 84.93679 34281 ft 452 kts 95°
2026-05-01 14:45 54.84037 84.99152 34606 ft 454 kts 95°
2026-05-01 14:46 54.83743 85.04586 34909 ft 455 kts 95°
2026-05-01 14:46 54.83181 85.15528 35026 ft 458 kts 91°
2026-05-01 14:46 54.83300 85.20987 35032 ft 457 kts 82°
2026-05-01 14:47 54.85007 85.31576 35037 ft 454 kts 63°
2026-05-01 14:48 54.90599 85.44540 35049 ft 448 kts 42°
2026-05-01 14:48 54.97149 85.56097 35040 ft 449 kts 42°
2026-05-01 14:49 55.05793 85.71734 35053 ft 448 kts 43°
2026-05-01 14:50 55.14360 85.87359 35062 ft 448 kts 43°
2026-05-01 14:51 55.20788 85.99149 35068 ft 448 kts 44°
2026-05-01 14:52 55.26611 86.12048 35070 ft 452 kts 54°
2026-05-01 14:53 55.31021 86.26654 35071 ft 456 kts 64°
2026-05-01 14:53 55.33516 86.36924 35071 ft 456 kts 64°
2026-05-01 14:54 55.35986 86.47150 35071 ft 457 kts 64°
2026-05-01 14:54 55.38463 86.57388 35078 ft 456 kts 64°
2026-05-01 14:55 55.40945 86.67666 35077 ft 457 kts 64°
2026-05-01 14:55 55.43415 86.77972 35077 ft 457 kts 64°
2026-05-01 14:56 55.45877 86.88284 35082 ft 457 kts 64°
2026-05-01 14:56 55.48333 86.98603 35085 ft 456 kts 64°
2026-05-01 14:57 55.50784 87.08951 35094 ft 456 kts 64°
2026-05-01 14:57 55.54446 87.24501 35104 ft 457 kts 64°
2026-05-01 14:58 55.56871 87.34862 35110 ft 457 kts 64°
2026-05-01 14:58 55.59290 87.45252 35109 ft 457 kts 64°
2026-05-01 14:59 55.61710 87.55675 35110 ft 456 kts 63°
2026-05-01 14:59 55.64121 87.66090 35103 ft 456 kts 64°
2026-05-01 15:00 55.67689 87.81678 35102 ft 456 kts 64°
2026-05-01 15:01 55.70055 87.92064 35103 ft 455 kts 64°
2026-05-01 15:01 55.72416 88.02469 35104 ft 454 kts 64°
2026-05-01 15:02 55.74761 88.12853 35102 ft 455 kts 64°
2026-05-01 15:02 55.77101 88.23261 35103 ft 455 kts 64°
2026-05-01 15:03 55.79422 88.33632 35104 ft 456 kts 64°
2026-05-01 15:03 55.81745 88.44072 35104 ft 456 kts 63°
2026-05-01 15:04 55.84062 88.54537 35106 ft 456 kts 63°
2026-05-01 15:04 55.86376 88.65046 35105 ft 456 kts 64°
2026-05-01 15:05 55.88668 88.75542 35110 ft 456 kts 64°
2026-05-01 15:05 55.90957 88.86050 35109 ft 456 kts 64°
2026-05-01 15:06 55.93198 88.96400 35110 ft 456 kts 64°
2026-05-01 15:06 55.95403 89.06624 35111 ft 456 kts 64°
2026-05-01 15:07 55.97562 89.16726 35110 ft 456 kts 64°
2026-05-01 15:07 55.99704 89.26817 35104 ft 455 kts 64°
2026-05-01 15:08 56.01868 89.37069 35096 ft 454 kts 64°
2026-05-01 15:08 56.04002 89.47213 35097 ft 454 kts 64°
2026-05-01 15:09 56.05676 89.57858 35099 ft 460 kts 74°
2026-05-01 15:09 56.06748 89.68887 34572 ft 466 kts 76°
2026-05-01 15:09 56.07283 89.74487 33778 ft 468 kts 76°
2026-05-01 15:10 56.07834 89.80161 32988 ft 470 kts 76°
2026-05-01 15:10 56.08939 89.91391 31404 ft 473 kts 76°
2026-05-01 15:10 56.09496 89.97035 30587 ft 474 kts 76°
2026-05-01 15:11 56.10063 90.02778 29752 ft 475 kts 76°
2026-05-01 15:11 56.11183 90.13954 28487 ft 468 kts 76°
2026-05-01 15:11 56.11731 90.19461 28046 ft 460 kts 76°
2026-05-01 15:12 56.12269 90.24947 27580 ft 454 kts 76°
2026-05-01 15:12 56.13309 90.35675 26689 ft 442 kts 76°
2026-05-01 15:12 56.13807 90.40865 26266 ft 436 kts 76°
2026-05-01 15:13 56.15282 90.56396 24895 ft 424 kts 75°
2026-05-01 15:14 56.16239 90.66598 23992 ft 417 kts 76°
2026-05-01 15:14 56.16704 90.71616 23526 ft 414 kts 76°
2026-05-01 15:14 56.17627 90.81606 22580 ft 409 kts 76°
2026-05-01 15:15 56.18534 90.91518 21611 ft 405 kts 76°
2026-05-01 15:15 56.19423 91.01296 20651 ft 400 kts 77°
2026-05-01 15:16 56.20287 91.10908 19727 ft 395 kts 77°
2026-05-01 15:16 56.21132 91.20386 18837 ft 389 kts 77°
2026-05-01 15:17 56.21965 91.29811 17960 ft 384 kts 77°
2026-05-01 15:18 56.23174 91.43650 16664 ft 375 kts 77°
2026-05-01 15:18 56.23570 91.48213 16246 ft 372 kts 77°
2026-05-01 15:19 56.24732 91.61726 14951 ft 363 kts 78°
2026-05-01 15:19 56.25485 91.70631 14102 ft 358 kts 79°
2026-05-01 15:19 56.25853 91.75030 13677 ft 354 kts 79°
2026-05-01 15:20 56.26574 91.83675 12852 ft 349 kts 79°
2026-05-01 15:20 56.26926 91.87923 12438 ft 346 kts 79°
2026-05-01 15:20 56.27280 91.92191 12023 ft 343 kts 79°
2026-05-01 15:21 56.27624 91.96375 11614 ft 341 kts 79°
2026-05-01 15:21 56.27966 92.00545 11186 ft 338 kts 80°
2026-05-01 15:21 56.28303 92.04685 10783 ft 335 kts 80°
2026-05-01 15:21 56.28642 92.08845 10386 ft 331 kts 80°
2026-05-01 15:22 56.29274 92.16740 10185 ft 303 kts 81°
2026-05-01 15:22 56.29394 92.20425 10089 ft 292 kts 89°
2026-05-01 15:22 56.29260 92.24085 9757 ft 291 kts 95°
2026-05-01 15:23 56.29031 92.27634 9399 ft 289 kts 96°
2026-05-01 15:23 56.28782 92.31243 9089 ft 286 kts 96°
2026-05-01 15:23 56.28543 92.34794 8769 ft 284 kts 96°
2026-05-01 15:23 56.28311 92.38337 8464 ft 282 kts 96°
2026-05-01 15:24 56.28084 92.41849 8132 ft 280 kts 96°
2026-05-01 15:24 56.27861 92.45328 7807 ft 277 kts 96°
2026-05-01 15:24 56.27638 92.48779 7504 ft 279 kts 96°
2026-05-01 15:24 56.27413 92.52230 7191 ft 277 kts 96°
2026-05-01 15:25 56.27184 92.55711 6884 ft 275 kts 96°
2026-05-01 15:25 56.26963 92.59094 6588 ft 273 kts 96°
2026-05-01 15:25 56.26741 92.62521 6280 ft 270 kts 96°
2026-05-01 15:25 56.26494 92.65887 5949 ft 269 kts 101°
2026-05-01 15:26 56.26015 92.69115 5656 ft 268 kts 110°
2026-05-01 15:26 56.25308 92.72250 5360 ft 267 kts 114°
2026-05-01 15:26 56.24570 92.75278 5049 ft 266 kts 114°
2026-05-01 15:26 56.23821 92.78331 4767 ft 261 kts 114°
2026-05-01 15:27 56.23027 92.81192 4527 ft 254 kts 127°
2026-05-01 15:27 56.21673 92.83117 4285 ft 247 kts 158°
2026-05-01 15:27 56.19994 92.83589 3983 ft 244 kts 186°
2026-05-01 15:28 56.16850 92.81443 3339 ft 245 kts 204°
2026-05-01 15:29 56.11435 92.76334 3064 ft 193 kts 242°
2026-05-01 15:29 56.11317 92.74131 3054 ft 171 kts 282°
2026-05-01 15:29 56.12133 92.70780 2985 ft 134 kts 297°
2026-05-01 15:30 56.12935 92.67740 2799 ft 134 kts 294°
2026-05-01 15:31 56.14388 92.61606 2083 ft 132 kts 293°
2026-05-01 15:31 56.15097 92.58592 1733 ft 130 kts 293°
2026-05-01 15:32 56.15801 92.55615 1386 ft 129 kts 294°
2026-05-01 15:32 56.16501 92.52674 1079 ft 128 kts 293°
2026-05-01 15:33 56.17249 92.49512 914 ft 24 kts 294°
2026-05-01 15:34 56.17423 92.48822 904 ft 15 kts 306°